Location: *
(2.7500°S, 66.6833°W)
Time: 03:21:11
(UTC+00:00)

ADEOS Rocket - Pass Details

Date: 24 May 2024
Orbit: 859 x 1305 km, 98.7° (Epoch: 23 June)

Event Time Altitude Azimuth Distance (km) Brightness Sun altitude
Rises 22:52:46 0° 154° (SSE) 3,475 5.5 -7.8°
Reaches altitude 10° 22:55:13 10° 147° (SSE) 2,565 4.7 -8.3°
Maximum altitude 23:00:34 43° 77° (ENE) 1,298 3.3 -9.6°
Drops below altitude 10° 23:06:21 10° 7° (N) 2,774 5.6 -10.9°
Sets 23:09:04 0° 1° (N) 3,789 6.4 -11.6°
